Simultaneous Nadir Overpasses (SNOs) Predictions

Prediction of SNOs between NOAA-20 and TERRA Satellite Orbit:

Table of predicted SNOs for the next 14.0 days since TLE Epoch: 6/8/2024
Index Date (NOAA-20) Time (NOAA-20) Lat,Lon (NOAA-20) SZA (NOAA-20 ) Date (TERRA) Time (TERRA) Lat,Lon (TERRA) SZA (TERRA ) Distance(km) Time Diff (sec)
1 06/10/2024 09:05:27 72.28, 36.36 49.29 06/10/2024 09:06:31 72.27, 36.32 49.27 1.76 64
2 06/10/2024 09:56:09 -72.20,-156.16 130.81 06/10/2024 09:55:55 -72.22,-156.11 130.78 2.94 14
3 06/12/2024 21:08:29 -72.27, 35.63 130.88 06/12/2024 21:09:11 -72.25, 35.57 130.91 2.83 42
4 06/12/2024 21:59:13 72.16,-156.86 49.00 06/12/2024 21:58:31 72.19,-156.85 49.04 3.69 42
5 06/15/2024 09:11:32 72.24, 34.91 48.98 06/15/2024 09:11:45 72.22, 34.85 48.97 2.24 13
6 06/15/2024 10:02:14 -72.15,-157.61 131.12 06/15/2024 10:01:10 -72.13,-157.66 131.13 3.30 64
7 06/17/2024 20:23:52 72.32,-133.34 49.01 06/17/2024 20:24:58 72.32,-133.32 48.99 0.64 66
8 06/17/2024 21:14:34 -72.24, 34.15 131.09 06/17/2024 21:14:23 -72.23, 34.16 131.10 1.12 11
9 06/17/2024 22:05:03 71.36,-156.92 47.97 06/17/2024 22:03:57 71.41,-159.54 48.16 93.09 66
10 06/20/2024 08:26:53 -72.28,-134.01 131.07 06/20/2024 08:27:36 -72.28,-134.08 131.07 2.49 43
11 06/20/2024 09:17:38 72.22, 33.39 48.88 06/20/2024 09:16:56 72.22, 33.48 48.88 2.87 42



Historial Predications of SNOs between NOAA-20 and TERRA
